| time (UTC) | temp C | wind direction | speed KPH | gust KPH | rain 1hr cm | rain 24hr cm | rain mn cm | humidity % | barometer mb |
| 20260831232016 | 28 | 89 | 1.6 | 4.8 | 0.00 | 0.00 | 0.00 | 37 | 1024.6 |
| 20260831231017 | 27 | 133 | 1.6 | 6.4 | 0.00 | 0.00 | 0.00 | 35 | 1024.6 |
| 20260831230017 | 27 | 115 | 1.6 | 4.8 | 0.00 | 0.00 | 0.00 | 35 | 1024.6 |
| 20260831225035 | 27 | 144 | 3.2 | 8.0 | 0.00 | 0.00 | 0.00 | 34 | 1024.9 |
| 20260831224015 | 28 | 133 | 1.6 | 6.4 | 0.00 | 0.00 | 0.00 | 33 | 1024.9 |
| 20260831223016 | 29 | 139 | 1.6 | 6.4 | 0.00 | 0.00 | 0.00 | 33 | 1025.1 |
| 20260831222016 | 30 | 136 | 1.6 | 9.7 | 0.00 | 0.00 | 0.00 | 32 | 1025.2 |
| 20260831221016 | 29 | 88 | 1.6 | 3.2 | 0.00 | 0.03 | 0.00 | 33 | 1025.3 |
| 20260831220017 | 30 | 146 | 1.6 | 6.4 | 0.00 | 0.05 | 0.00 | 34 | 1025.2 |
| 20260831215014 | 30 | 48 | 1.6 | 4.8 | 0.00 | 0.05 | 0.00 | 34 | 1025.3 |
| 20260831214015 | 30 | 96 | 1.6 | 3.2 | 0.00 | 0.05 | 0.00 | 35 | 1025.5 |
| 20260831213015 | 30 | 95 | 1.6 | 4.8 | 0.00 | 0.05 | 0.00 | 35 | 1025.6 |
| 20260831212016 | 29 | 89 | 1.6 | 4.8 | 0.00 | 0.05 | 0.00 | 35 | 1025.7 |
| 20260831211016 | 28 | 111 | 1.6 | 3.2 | 0.00 | 0.05 | 0.00 | 36 | 1025.8 |
| 20260831210036 | 28 | 99 | 1.6 | 4.8 | 0.00 | 0.05 | 0.00 | 34 | 1026.0 |
| 20260831205017 | 29 | 114 | 0.0 | 1.6 | 0.00 | 0.05 | 0.00 | 36 | 1026.0 |
| 20260831204015 | 28 | 120 | 1.6 | 4.8 | 0.00 | 0.05 | 0.00 | 36 | 1026.2 |
| 20260831203015 | 28 | 92 | 0.0 | 3.2 | 0.00 | 0.05 | 0.00 | 38 | 1026.3 |
| 20260831202016 | 28 | 283 | 0.0 | 3.2 | 0.00 | 0.05 | 0.00 | 38 | 1026.5 |
| 20260831201016 | 27 | 0.0 | 0.0 | 0.00 | 0.05 | 0.00 | 38 | 1026.7 | |
| 20260831200016 | 27 | 0.0 | 0.0 | 0.00 | 0.05 | 0.00 | 40 | 1026.8 | |
| 20260831195016 | 27 | 0.0 | 0.0 | 0.00 | 0.05 | 0.00 | 39 | 1026.8 | |
| 20260831194017 | 27 | 219 | 0.0 | 1.6 | 0.00 | 0.05 | 0.00 | 39 | 1026.9 |
| 20260831193015 | 27 | 242 | 0.0 | 3.2 | 0.00 | 0.05 | 0.00 | 38 | 1027.0 |
| 20260831192015 | 27 | 27 | 0.0 | 1.6 | 0.00 | 0.05 | 0.00 | 39 | 1027.1 |
| 20260831191015 | 27 | 289 | 0.0 | 1.6 | 0.00 | 0.05 | 0.00 | 39 | 1027.2 |
| 20260831190036 | 27 | 282 | 0.0 | 1.6 | 0.00 | 0.05 | 0.00 | 38 | 1027.3 |
| 20260831185016 | 27 | 256 | 0.0 | 3.2 | 0.00 | 0.05 | 0.00 | 37 | 1027.4 |
| 20260831184017 | 27 | 250 | 0.0 | 1.6 | 0.00 | 0.05 | 0.00 | 38 | 1027.5 |
| 20260831183037 | 26 | 244 | 0.0 | 1.6 | 0.00 | 0.05 | 0.00 | 39 | 1027.6 |
| 20260831182015 | 26 | 0.0 | 0.0 | 0.00 | 0.05 | 0.00 | 40 | 1027.7 | |
| 20260831181015 | 26 | 267 | 0.0 | 1.6 | 0.00 | 0.05 | 0.00 | 40 | 1027.7 |
| 20260831180015 | 26 | 266 | 0.0 | 1.6 | 0.00 | 0.05 | 0.00 | 41 | 1027.8 |
| 20260831175016 | 26 | 270 | 0.0 | 1.6 | 0.00 | 0.05 | 0.00 | 41 | 1027.9 |
| 20260831174016 | 25 | 251 | 0.0 | 1.6 | 0.00 | 0.05 | 0.00 | 42 | 1027.8 |
| 20260831173017 | 25 | 0.0 | 0.0 | 0.00 | 0.05 | 0.00 | 42 | 1027.9 | |
| 20260831172017 | 25 | 250 | 0.0 | 1.6 | 0.00 | 0.05 | 0.00 | 41 | 1028.0 |
| 20260831171035 | 25 | 0.0 | 0.0 | 0.00 | 0.05 | 0.00 | 41 | 1028.0 | |
| 20260831170015 | 25 | 267 | 0.0 | 1.6 | 0.00 | 0.05 | 0.00 | 43 | 1028.0 |
| 20260831165016 | 25 | 268 | 0.0 | 1.6 | 0.00 | 0.05 | 0.00 | 42 | 1028.0 |
| 20260831164036 | 24 | 12 | 0.0 | 1.6 | 0.00 | 0.05 | 0.00 | 43 | 1027.9 |
| 20260831163056 | 23 | 12 | 0.0 | 1.6 | 0.00 | 0.05 | 0.00 | 45 | 1027.9 |
| 20260831162038 | 23 | 12 | 0.0 | 1.6 | 0.00 | 0.05 | 0.00 | 47 | 1027.8 |
| 20260831161035 | 23 | 12 | 0.0 | 3.2 | 0.00 | 0.05 | 0.00 | 50 | 1027.7 |
| 20260831160015 | 22 | 41 | 0.0 | 3.2 | 0.00 | 0.05 | 0.00 | 51 | 1027.8 |
| 20260831155015 | 22 | 0.0 | 0.0 | 0.00 | 0.05 | 0.00 | 50 | 1027.7 | |
| 20260831154016 | 22 | 141 | 0.0 | 1.6 | 0.00 | 0.05 | 0.00 | 52 | 1027.7 |
| 20260831153016 | 21 | 141 | 0.0 | 1.6 | 0.00 | 0.05 | 0.00 | 52 | 1027.6 |
| 20260831152016 | 21 | 0.0 | 0.0 | 0.00 | 0.05 | 0.00 | 52 | 1027.6 | |
| 20260831151017 | 21 | 141 | 0.0 | 1.6 | 0.00 | 0.05 | 0.00 | 53 | 1027.6 |
| 20260831150015 | 21 | 141 | 0.0 | 1.6 | 0.00 | 0.05 | 0.00 | 54 | 1027.5 |
| 20260831145015 | 20 | 143 | 0.0 | 3.2 | 0.00 | 0.05 | 0.00 | 55 | 1027.4 |
| 20260831144015 | 20 | 143 | 0.0 | 1.6 | 0.00 | 0.05 | 0.00 | 56 | 1027.3 |
| 20260831143016 | 20 | 142 | 0.0 | 1.6 | 0.00 | 0.05 | 0.00 | 57 | 1027.3 |
| 20260831142016 | 19 | 142 | 1.6 | 3.2 | 0.00 | 0.05 | 0.00 | 57 | 1027.3 |
| 20260831141017 | 18 | 147 | 1.6 | 3.2 | 0.00 | 0.05 | 0.00 | 58 | 1027.3 |
| 20260831140037 | 18 | 145 | 0.0 | 3.2 | 0.00 | 0.05 | 0.00 | 59 | 1027.2 |
| 20260831135015 | 18 | 133 | 0.0 | 3.2 | 0.00 | 0.05 | 0.00 | 59 | 1027.0 |
| 20260831134015 | 17 | 143 | 0.0 | 3.2 | 0.00 | 0.05 | 0.00 | 61 | 1026.7 |
| 20260831133018 | 17 | 148 | 0.0 | 3.2 | 0.00 | 0.05 | 0.00 | 61 | 1026.7 |
| 20260831132016 | 17 | 136 | 0.0 | 3.2 | 0.00 | 0.05 | 0.00 | 62 | 1026.7 |
| 20260831131036 | 16 | 136 | 0.0 | 3.2 | 0.00 | 0.05 | 0.00 | 62 | 1026.6 |
| 20260831125517 | 16 | 136 | 0.0 | 1.6 | 0.00 | 0.05 | 0.00 | 62 | 1026.3 |
| 20260831124515 | 16 | 136 | 0.0 | 1.6 | 0.00 | 0.05 | 0.00 | 63 | 1026.2 |
| 20260831123535 | 16 | 141 | 0.0 | 1.6 | 0.00 | 0.05 | 0.00 | 63 | 1026.1 |
| 20260831122535 | 16 | 140 | 0.0 | 1.6 | 0.00 | 0.05 | 0.00 | 63 | 1026.0 |
| 20260831121516 | 16 | 142 | 0.0 | 3.2 | 0.00 | 0.05 | 0.00 | 64 | 1026.0 |
| 20260831120516 | 16 | 140 | 0.0 | 1.6 | 0.00 | 0.05 | 0.00 | 64 | 1026.0 |
| 20260831115537 | 16 | 140 | 0.0 | 1.6 | 0.00 | 0.05 | 0.00 | 64 | 1025.8 |
| 20260831114517 | 16 | 146 | 0.0 | 3.2 | 0.00 | 0.05 | 0.00 | 64 | 1025.8 |
| 20260831113535 | 16 | 0.0 | 0.0 | 0.00 | 0.05 | 0.00 | 64 | 1025.8 | |
| 20260831112515 | 16 | 137 | 0.0 | 1.6 | 0.00 | 0.05 | 0.00 | 64 | 1025.7 |
| 20260831111515 | 16 | 136 | 1.6 | 3.2 | 0.00 | 0.05 | 0.00 | 65 | 1025.7 |
| 20260831110516 | 16 | 136 | 0.0 | 1.6 | 0.00 | 0.05 | 0.00 | 65 | 1025.6 |
| 20260831105516 | 16 | 136 | 0.0 | 1.6 | 0.00 | 0.05 | 0.00 | 64 | 1025.5 |
| 20260831104517 | 16 | 136 | 0.0 | 1.6 | 0.00 | 0.05 | 0.00 | 64 | 1025.6 |
| 20260831103517 | 16 | 137 | 0.0 | 1.6 | 0.00 | 0.05 | 0.00 | 64 | 1025.6 |
| 20260831102535 | 16 | 137 | 0.0 | 3.2 | 0.00 | 0.05 | 0.00 | 64 | 1025.5 |
| 20260831101515 | 16 | 137 | 0.0 | 1.6 | 0.00 | 0.05 | 0.00 | 65 | 1025.4 |
| 20260831100516 | 16 | 139 | 0.0 | 1.6 | 0.00 | 0.05 | 0.00 | 65 | 1025.3 |
| 20260831095516 | 16 | 139 | 0.0 | 1.6 | 0.00 | 0.05 | 0.00 | 66 | 1025.3 |
| 20260831094536 | 16 | 149 | 1.6 | 3.2 | 0.00 | 0.05 | 0.00 | 66 | 1025.3 |
| 20260831093517 | 16 | 136 | 0.0 | 1.6 | 0.00 | 0.05 | 0.00 | 66 | 1025.4 |
| 20260831092515 | 16 | 148 | 1.6 | 4.8 | 0.00 | 0.05 | 0.00 | 66 | 1025.2 |
| 20260831091515 | 17 | 143 | 0.0 | 3.2 | 0.00 | 0.05 | 0.00 | 66 | 1025.2 |
| 20260831090515 | 17 | 142 | 0.0 | 3.2 | 0.00 | 0.05 | 0.00 | 65 | 1025.2 |
| 20260831085556 | 17 | 142 | 1.6 | 6.4 | 0.00 | 0.05 | 0.00 | 65 | 1025.1 |
| 20260831084516 | 17 | 140 | 1.6 | 4.8 | 0.00 | 0.05 | 0.00 | 66 | 1025.3 |
| 20260831083516 | 16 | 145 | 1.6 | 6.4 | 0.00 | 0.05 | 0.00 | 66 | 1025.4 |
| 20260831082537 | 16 | 140 | 0.0 | 3.2 | 0.00 | 0.05 | 0.00 | 67 | 1025.5 |
| 20260831081515 | 17 | 140 | 0.0 | 1.6 | 0.00 | 0.05 | 0.00 | 67 | 1025.5 |
| 20260831080535 | 17 | 140 | 0.0 | 3.2 | 0.00 | 0.05 | 0.00 | 67 | 1025.6 |
| 20260831075535 | 17 | 140 | 0.0 | 3.2 | 0.00 | 0.05 | 0.00 | 67 | 1025.8 |
| 20260831074516 | 17 | 150 | 0.0 | 3.2 | 0.00 | 0.05 | 0.00 | 68 | 1025.8 |
| 20260831073516 | 17 | 146 | 0.0 | 3.2 | 0.00 | 0.05 | 0.00 | 67 | 1025.8 |
| 20260831072517 | 17 | 141 | 1.6 | 4.8 | 0.00 | 0.05 | 0.00 | 67 | 1025.7 |
| 20260831071517 | 17 | 145 | 0.0 | 3.2 | 0.00 | 0.05 | 0.00 | 67 | 1025.8 |
| 20260831070535 | 17 | 141 | 1.6 | 6.4 | 0.00 | 0.05 | 0.00 | 67 | 1026.0 |
| 20260831065515 | 17 | 141 | 1.6 | 4.8 | 0.00 | 0.05 | 0.00 | 68 | 1026.2 |
| 20260831064515 | 17 | 141 | 1.6 | 3.2 | 0.00 | 0.05 | 0.00 | 68 | 1026.2 |
| 20260831063516 | 17 | 144 | 1.6 | 6.4 | 0.00 | 0.05 | 0.00 | 68 | 1026.4 |
| 20260831062516 | 17 | 139 | 1.6 | 6.4 | 0.00 | 0.05 | 0.00 | 69 | 1026.4 |
| 20260831061537 | 17 | 142 | 3.2 | 8.0 | 0.00 | 0.05 | 0.00 | 69 | 1026.6 |
| 20260831060517 | 17 | 145 | 1.6 | 6.4 | 0.00 | 0.05 | 0.00 | 69 | 1026.8 |
| 20260831055515 | 17 | 144 | 1.6 | 4.8 | 0.00 | 0.05 | 0.05 | 69 | 1026.8 |
| 20260831054515 | 17 | 127 | 0.0 | 1.6 | 0.00 | 0.05 | 0.05 | 69 | 1027.0 |
| 20260831053516 | 17 | 127 | 0.0 | 1.6 | 0.00 | 0.05 | 0.05 | 69 | 1026.9 |
| 20260831052516 | 17 | 0.0 | 0.0 | 0.00 | 0.05 | 0.05 | 69 | 1027.0 | |
| 20260831051517 | 17 | 127 | 0.0 | 1.6 | 0.00 | 0.05 | 0.05 | 69 | 1026.9 |
| 20260831050517 | 18 | 125 | 0.0 | 1.6 | 0.00 | 0.05 | 0.05 | 68 | 1026.8 |
| 20260831045537 | 18 | 148 | 1.6 | 4.8 | 0.00 | 0.05 | 0.05 | 67 | 1027.2 |
| 20260831044515 | 18 | 141 | 3.2 | 9.7 | 0.00 | 0.05 | 0.05 | 68 | 1026.8 |
| 20260831043515 | 19 | 136 | 1.6 | 6.4 | 0.00 | 0.05 | 0.05 | 66 | 1027.2 |
| 20260831042516 | 19 | 145 | 1.6 | 6.4 | 0.00 | 0.05 | 0.05 | 65 | 1026.9 |
| 20260831041536 | 19 | 142 | 1.6 | 6.4 | 0.00 | 0.05 | 0.05 | 66 | 1026.6 |
| 20260831040517 | 18 | 142 | 1.6 | 4.8 | 0.00 | 0.05 | 0.05 | 67 | 1026.2 |
| 20260831035517 | 18 | 142 | 1.6 | 3.2 | 0.00 | 0.05 | 0.05 | 67 | 1025.8 |
| 20260831034515 | 18 | 142 | 3.2 | 8.0 | 0.00 | 0.05 | 0.05 | 70 | 1025.9 |
| 20260831033535 | 18 | 132 | 1.6 | 4.8 | 0.00 | 0.05 | 0.05 | 74 | 1026.0 |
| 20260831032516 | 17 | 0.0 | 0.0 | 0.00 | 0.05 | 0.05 | 77 | 1026.1 | |
| 20260831031516 | 17 | 145 | 1.6 | 3.2 | 0.00 | 0.05 | 0.05 | 77 | 1026.5 |
| 20260831030516 | 17 | 143 | 1.6 | 6.4 | 0.00 | 0.05 | 0.05 | 77 | 1026.4 |
| 20260831025516 | 17 | 141 | 0.0 | 3.2 | 0.00 | 0.05 | 0.05 | 78 | 1026.3 |
| 20260831024517 | 17 | 141 | 1.6 | 8.0 | 0.00 | 0.05 | 0.05 | 78 | 1026.1 |
| 20260831023535 | 17 | 142 | 0.0 | 4.8 | 0.00 | 0.05 | 0.05 | 78 | 1025.8 |
| 20260831022515 | 17 | 140 | 1.6 | 6.4 | 0.00 | 0.05 | 0.05 | 78 | 1025.5 |
| 20260831021536 | 17 | 136 | 1.6 | 4.8 | 0.00 | 0.05 | 0.05 | 79 | 1025.3 |
| 20260831020536 | 17 | 132 | 0.0 | 1.6 | 0.00 | 0.05 | 0.05 | 79 | 1025.3 |
| 20260831015516 | 17 | 145 | 1.6 | 3.2 | 0.00 | 0.05 | 0.05 | 77 | 1025.1 |
| 20260831014537 | 18 | 142 | 0.0 | 3.2 | 0.00 | 0.05 | 0.05 | 76 | 1025.1 |
| 20260831013517 | 18 | 137 | 0.0 | 3.2 | 0.00 | 0.05 | 0.05 | 77 | 1025.1 |
| 20260831012515 | 18 | 0.0 | 0.0 | 0.00 | 0.05 | 0.05 | 77 | 1025.1 | |
| 20260831011515 | 19 | 0.0 | 0.0 | 0.00 | 0.05 | 0.05 | 75 | 1025.0 | |
| 20260831010516 | 20 | 0.0 | 0.0 | 0.00 | 0.05 | 0.05 | 74 | 1025.1 | |
| 20260831005516 | 20 | 135 | 0.0 | 1.6 | 0.00 | 0.05 | 0.05 | 70 | 1025.1 |
| 20260831004516 | 20 | 135 | 0.0 | 1.6 | 0.00 | 0.05 | 0.05 | 66 | 1025.3 |
| 20260831003637 | 20 | 135 | 0.0 | 1.6 | 0.00 | 0.05 | 0.05 | 65 | 1025.2 |
| 20260831002517 | 20 | 135 | 0.0 | 1.6 | 0.00 | 0.05 | 0.05 | 65 | 1025.1 |
| 20260831001535 | 20 | 136 | 0.0 | 4.8 | 0.00 | 0.05 | 0.05 | 65 | 1025.3 |
| 20260831000515 | 20 | 137 | 0.0 | 3.2 | 0.00 | 0.05 | 0.05 | 69 | 1025.6 |
| 20260830235516 | 19 | 141 | 1.6 | 6.4 | 0.00 | 0.05 | 0.05 | 69 | 1025.8 |
| 20260830234516 | 19 | 137 | 0.0 | 4.8 | 0.00 | 0.05 | 0.05 | 70 | 1025.9 |
| 20260830233517 | 18 | 0.0 | 0.0 | 0.00 | 0.05 | 0.05 | 72 | 1025.8 | |
| 20260830232517 | 18 | 110 | 0.0 | 1.6 | 0.00 | 0.05 | 0.05 | 73 | 1025.8 |